Location: Puketoi
(40.5833°S, 176.0167°E)
Time: 14:31:48
(UTC+00:00)

PAYLOAD A - Pass Details

Date: 23 September 2023
Orbit: 692 x 830 km, 98.5° (Epoch: 01 December)

Event Time Altitude Azimuth Distance (km) Brightness Sun altitude
Exits shadow 13:41:10 15° 145° (SE) 2,126 6.8 -44.2°
Drops below altitude 10° 13:42:42 10° 159° (SSE) 2,460 7.2 -44.0°
Sets 13:45:49 0° 177° (S) 3,410 8.0 -43.7°
